JQ1YUX-13 Tokyo Ota-ku JP current weather conditions

sailwx.info

Wind from 334

Air temperature 12.2° C
Dewpoint 10.3° C

Last reported at 2016-Dec-05 15:20 UTC.
Time now 2016-Dec-05 16:37 UTC

Location: N 35°35' E 139°40'.
View on Google Maps.

See reports from other nearby stations

  
Tides and Currents Weather Stations Pressure Air Temp Water Temp Dewpoint Dewpoint Depression Visibility Wind Speed Wind Dir Waves Ship Positions
date/time (UTC)wind fromknots sea level pressurealtimeterstation pressurevisibilityair tempwater tempwave heightnotes
2016-Dec-05 15:20 334 12.2
2016-Dec-05 14:50 334 12.8
2016-Dec-05 14:20 202 12.2
2016-Dec-05 13:50 202 12.8
2016-Dec-05 13:43 202 12.8
2016-Dec-05 13:25 168 13.3
2016-Dec-05 13:10 167 13.3
2016-Dec-05 12:55 168 13.9
2016-Dec-05 12:40 167 13.9
2016-Dec-05 12:25 167 13.9
2016-Dec-05 12:10 167 13.9
2016-Dec-05 11:55 168 14.4
2016-Dec-05 11:40 168 14.4
2016-Dec-05 11:25 167 14.4
2016-Dec-05 11:10 168 14.4
2016-Dec-05 10:55 168 14.4
2016-Dec-05 10:40 167 14.4
2016-Dec-05 10:25 167 15.0
2016-Dec-05 10:10 168 15.0
2016-Dec-05 09:55 167 15.0
2016-Dec-05 09:40 167 15.6
2016-Dec-05 09:25 168 15.6
2016-Dec-05 09:10 169 15.6
2016-Dec-05 08:55 167 15.6
2016-Dec-05 08:40 168 16.1
2016-Dec-05 08:25 168 16.1
2016-Dec-05 08:10 169 16.1
2016-Dec-05 07:55 167 16.1
2016-Dec-05 07:40 168 16.7
2016-Dec-05 07:25 167 16.7
2016-Dec-05 07:10 167 17.2
2016-Dec-05 06:55 167 17.2
2016-Dec-05 06:40 168 17.2
2016-Dec-05 06:25 170 17.8
2016-Dec-05 06:17 184 0 gusting 1 17.8
2016-Dec-05 05:55 330 19.4
2016-Dec-05 05:54 330 19.4
2016-Dec-05 05:25 331 19.4
2016-Dec-05 05:24 331 19.4
2016-Dec-05 04:55 025 1 gusting 3 18.9
2016-Dec-05 04:54 009 18.9
2016-Dec-05 04:25 034 0 gusting 3 18.9
2016-Dec-05 04:24 349 1 gusting 5 18.9
2016-Dec-05 03:55 013 0 gusting 2 18.3
2016-Dec-05 03:54 014 0 gusting 1 18.3
2016-Dec-05 03:45 321 18.3
2016-Dec-05 03:25 343 17.8
2016-Dec-05 03:15 292 17.8
2016-Dec-05 02:55 016 0 gusting 3 17.2
2016-Dec-05 02:45 318 17.2
2016-Dec-05 02:25 005 0 gusting 0 17.2
2016-Dec-05 02:15 032 16.7
2016-Dec-05 01:55 283 16.1
2016-Dec-05 01:45 284 16.1
2016-Dec-05 01:25 284 15.6
2016-Dec-05 01:15 284 15.0
2016-Dec-05 00:55 284 13.9
2016-Dec-05 00:45 284 13.9
2016-Dec-05 00:25 284 12.2
2016-Dec-05 00:15 283 11.7
2016-Dec-04 23:55 284 10.6
2016-Dec-04 23:45 284 10.6
2016-Dec-04 23:25 284 10.0
2016-Dec-04 23:15 284 10.0
2016-Dec-04 22:55 284 10.0
2016-Dec-04 22:45 284 9.4
2016-Dec-04 22:25 283 9.4
2016-Dec-04 22:15 284 10.0
2016-Dec-04 21:55 284 10.0
2016-Dec-04 21:45 283 10.0
2016-Dec-04 21:25 284 1 gusting 4 10.6
2016-Dec-04 21:15 307 10.6
2016-Dec-04 20:55 327 10.6
2016-Dec-04 20:45 327 10.6
2016-Dec-04 20:25 329 10.6
2016-Dec-04 20:15 329 10.6
2016-Dec-04 19:55 329 10.6
2016-Dec-04 19:45 329 10.0
2016-Dec-04 19:25 329 0 gusting 1 10.0
2016-Dec-04 19:15 345 10.0
2016-Dec-04 18:55 345 10.0
2016-Dec-04 18:45 350 10.0
2016-Dec-04 18:25 342 0 gusting 1 10.0
2016-Dec-04 18:15 329 0 gusting 2 10.0
2016-Dec-04 17:55 030 1 gusting 5 10.0
2016-Dec-04 17:45 315 1 gusting 4 10.0
2016-Dec-04 17:25 347 10.0
2016-Dec-04 17:15 349 10.0
2016-Dec-04 16:55 351 10.0
2016-Dec-04 16:45 338 10.0
2016-Dec-04 16:25 330 0 10.0
2016-Dec-04 16:15 327 10.0
2016-Dec-04 15:55 330 10.0
2016-Dec-04 15:45 329 10.6
2016-Dec-04 15:25 299 11.1
2016-Dec-04 15:15 319 11.1
2016-Dec-04 14:55 318 11.1
2016-Dec-04 14:45 319 11.1
2016-Dec-04 14:25 319 11.7
2016-Dec-04 14:15 319 11.1
2016-Dec-04 13:55 319 11.7
2016-Dec-04 13:45 319 11.7
2016-Dec-04 13:25 318 11.7
2016-Dec-04 13:15 320 11.7
2016-Dec-04 12:55 319 11.7
2016-Dec-04 12:45 319 12.2
2016-Dec-04 12:25 279 2 gusting 5 12.8
2016-Dec-04 12:15 283 13.3
2016-Dec-04 11:55 283 13.3
2016-Dec-04 11:45 282 13.3
2016-Dec-04 11:25 282 13.3
2016-Dec-04 11:15 283 13.3
2016-Dec-04 10:55 283 13.3
2016-Dec-04 10:45 284 13.9
2016-Dec-04 10:25 283 13.9
2016-Dec-04 10:15 281 1 gusting 4 13.9
2016-Dec-04 09:55 315 14.4
2016-Dec-04 09:45 304 14.4
2016-Dec-04 09:25 248 1 gusting 3 16.1
2016-Dec-04 09:15 211 16.1
2016-Dec-04 08:55 234 16.1
2016-Dec-04 08:45 203 16.7
2016-Dec-04 08:25 199 3 gusting 6 16.1
2016-Dec-04 08:15 161 16.1
2016-Dec-04 07:55 161 16.1
2016-Dec-04 07:45 162 16.1
2016-Dec-04 07:25 161 1 gusting 1 16.1
2016-Dec-04 07:15 161 16.1
2016-Dec-04 06:55 161 16.1
2016-Dec-04 06:45 161 16.1
2016-Dec-04 06:25 161 16.7
2016-Dec-04 06:15 188 16.7
2016-Dec-04 05:55 165 0 gusting 4 17.2
2016-Dec-04 05:45 200 1 gusting 5 17.2
2016-Dec-04 05:25 193 17.2
2016-Dec-04 05:15 175 17.2
2016-Dec-04 04:55 180 1 gusting 5 17.2
2016-Dec-04 04:45 187 1 gusting 4 17.2
2016-Dec-04 04:25 167 3 gusting 7 17.8
2016-Dec-04 04:15 166 0 gusting 4 17.8
2016-Dec-04 03:55 198 16.7
2016-Dec-04 03:45 198 16.7
2016-Dec-04 03:25 223 16.1
2016-Dec-04 03:15 172 0 gusting 1 15.6
2016-Dec-04 02:55 183 15.6
2016-Dec-04 02:45 182 15.6
2016-Dec-04 02:25 184 0 gusting 4 15.0
2016-Dec-04 02:15 005 15.6
2016-Dec-04 01:55 15.0
2016-Dec-04 01:45 005 14.4
2016-Dec-04 01:25 009 13.3
2016-Dec-04 01:15 12.8
2016-Dec-04 00:55 009 12.2
2016-Dec-04 00:45 009 12.2
2016-Dec-04 00:25 005 11.1
2016-Dec-04 00:15 005 10.6
2016-Dec-03 23:55 005 10.0
2016-Dec-03 23:45 009 9.4
2016-Dec-03 23:25 009 9.4
2016-Dec-03 23:15 009 8.9
2016-Dec-03 22:55 005 8.3
2016-Dec-03 22:45 009 8.3
2016-Dec-03 22:25 8.3
2016-Dec-03 22:15 005 7.8
2016-Dec-03 21:55 009 7.8
2016-Dec-03 21:45 009 7.8
2016-Dec-03 21:25 005 7.8
2016-Dec-03 21:15 8.3
2016-Dec-03 20:55 009 8.3
2016-Dec-03 20:45 005 8.3
2016-Dec-03 20:25 005 8.3
2016-Dec-03 20:15 8.3
2016-Dec-03 19:55 005 8.9
2016-Dec-03 19:45 005 8.9
2016-Dec-03 19:25 005 8.9
2016-Dec-03 19:15 009 8.9
2016-Dec-03 18:55 005 9.4
2016-Dec-03 18:45 9.4
2016-Dec-03 18:25 009 9.4
2016-Dec-03 18:15 005 9.4
2016-Dec-03 17:55 005 9.4
2016-Dec-03 17:45 9.4
2016-Dec-03 17:25 005 9.4
2016-Dec-03 17:15 005 9.4
2016-Dec-03 16:55 009 9.4
2016-Dec-03 16:45 005 9.4
2016-Dec-03 16:25 005 9.4
2016-Dec-03 16:15 009 9.4